User: anonymous   Login
Location: Unspecified
(0.0000°N, 0.0000°E)
Time: 23:50:41
(UTC+00:00)
Language:

CUTE-I - Orbit

View from above orbital plane
View from above orbital plane
View from above satellite
View from above satellite

Ground track
Ground track

The orbit data is extracted from the following two-line orbital elements,

1 27844U 03031E   24176.61264868  .00000428  00000-0  20819-3 0  9990
2 27844  98.6762 183.5379 0010865 119.5478 240.6785 14.23285720 88840
Epoch (UTC): 24 June 2024 14:42:12
Eccentricity: 0.0010865
inclination: 98.6762°
perigee height: 806 km
apogee height: 822 km
right ascension of ascending node: 183.5379°
argument of perigee: 119.5478°
revolutions per day: 14.23285720
mean anomaly at epoch: 240.6785°
orbit number at epoch: 8884

The dashed part of the orbit path shows where the satellite is in the earth's shadow,  

DLR